This is the latest recevied weather packets stored in our database for station/object KD0MAC. If no packets are shown the sender has not sent any weather packets the latest 10 day(s).
| Time | Temp. | Humidity | Pressure | Rain* | Wind** | Luminosity | Snow |
|---|---|---|---|---|---|---|---|
| 1777944094 | 20° C | 45% | 1003.4 hPa | 0 mm | - | 7 W/m² | - |
| 1777943793 | 20.56° C | 44% | 1003 hPa | 0 mm | - | 10 W/m² | - |
| 1777943494 | 20.56° C | 43% | 1003 hPa | 0 mm | - | 11 W/m² | - |
| 1777943193 | 21.11° C | 42% | 1003.4 hPa | 0 mm | - | 13 W/m² | - |
| 1777942894 | 21.11° C | 40% | 1003 hPa | 0 mm | - | 19 W/m² | - |
| 1777942594 | 21.67° C | 38% | 1002.7 hPa | 0 mm | - | 19 W/m² | - |
| 1777942293 | 22.22° C | 37% | 1002.7 hPa | 0 mm | - | 23 W/m² | - |
| 1777941993 | 22.22° C | 36% | 1002.7 hPa | 0 mm | - | 34 W/m² | - |
| 1777941694 | 22.22° C | 36% | 1002.7 hPa | 0 mm | - | 40 W/m² | - |
| 1777941393 | 22.22° C | 36% | 1002.7 hPa | 0 mm | - | 48 W/m² | - |
| 1777941094 | 22.22° C | 36% | 1002.4 hPa | 0 mm | - | 50 W/m² | - |
| 1777940793 | 22.78° C | 36% | 1002.4 hPa | 0 mm | - | 48 W/m² | - |
| 1777940493 | 22.78° C | 36% | 1002.7 hPa | 0 mm | - | 65 W/m² | - |
| 1777940193 | 23.33° C | 35% | 1002.7 hPa | 0 mm | - | 71 W/m² | - |
| 1777939893 | 24.44° C | 33% | 1003 hPa | 0 mm | - | 66 W/m² | - |
| 1777939594 | 25.56° C | 31% | 1002.7 hPa | 0 mm | - | 63 W/m² | - |
| 1777939294 | 26.11° C | 29% | 1002.7 hPa | 0 mm | - | 114 W/m² | - |
| 1777938994 | 25.56° C | 29% | 1002.7 hPa | 0 mm | - | 142 W/m² | - |
| 1777938693 | 25.56° C | 29% | 1002.7 hPa | 0 mm | - | 144 W/m² | - |
| 1777938402 | 25° C | 31% | 1003 hPa | 0 mm | - | 180 W/m² | - |
| 1777938093 | 25° C | 31% | 1003 hPa | 0 mm | - | 110 W/m² | - |
| 1777937795 | 25° C | 29% | 1003 hPa | 0 mm | - | 96 W/m² | - |
| 1777937493 | 25.56° C | 28% | 1003 hPa | 0 mm | - | 96 W/m² | - |
| 1777937193 | 25.56° C | 27% | 1002.7 hPa | 0 mm | - | 82 W/m² | - |
| 1777936893 | 25.56° C | 26% | 1002.7 hPa | 0 mm | - | 83 W/m² | - |
* Rain latest hour (hover to see other rain measurements)
** Current wind speed in m/s (hover to see current wind gust speed)